| time (UTC) | temp F | wind direction | speed knots | gust knots | rain 1hr in | rain 24hr in | rain mn in | humidity % | barometer mb |
| 20260502210002 | 51 | 0 | 0.0 | 0.0 | 0.00 | 0.00 | 0.00 | 87 | 1012.7 |
| 20260502204002 | 51 | 0 | 0.0 | 0.0 | 0.00 | 0.00 | 0.00 | 87 | 1012.1 |
| 20260502202001 | 50 | 0 | 0.0 | 0.0 | 0.00 | 0.00 | 0.00 | 87 | 1011.7 |
| 20260502200001 | 50 | 0 | 0.0 | 0.0 | 0.00 | 0.00 | 0.00 | 87 | 1011.6 |
| 20260502194002 | 51 | 0 | 0.0 | 0.0 | 0.00 | 0.00 | 0.00 | 86 | 1011.6 |
| 20260502192001 | 51 | 318 | 0.0 | 0.9 | 0.00 | 0.00 | 0.00 | 85 | 1011.5 |
| 20260502190002 | 51 | 105 | 0.0 | 1.7 | 0.00 | 0.00 | 0.00 | 84 | 1011.4 |
| 20260502184002 | 51 | 176 | 0.0 | 0.9 | 0.00 | 0.00 | 0.00 | 84 | 1011.1 |
| 20260502182002 | 51 | 0 | 0.0 | 0.0 | 0.00 | 0.04 | 0.00 | 84 | 1011.2 |
| 20260502164002 | 49 | 0 | 0.0 | 0.0 | 0.00 | 0.56 | 0.00 | 86 | 1012.0 |
| 20260502162002 | 49 | 0 | 0.0 | 0.0 | 0.00 | 0.59 | 0.00 | 85 | 1012.4 |
| 20260502152002 | 50 | 169 | 0.0 | 0.9 | 0.00 | 0.71 | 0.00 | 83 | 1012.5 |
| 20260502122001 | 52 | 188 | 0.0 | 1.7 | 0.00 | 0.88 | 0.71 | 82 | 1012.9 |
| 20260502114002 | 53 | 173 | 0.9 | 2.6 | 0.00 | 1.11 | 0.71 | 83 | 1012.7 |
| 20260502112002 | 54 | 161 | 0.0 | 0.9 | 0.00 | 1.30 | 0.71 | 82 | 1012.6 |
| 20260502110002 | 54 | 158 | 0.0 | 1.7 | 0.00 | 1.50 | 0.71 | 82 | 1012.6 |
| 20260502104001 | 56 | 236 | 0.0 | 0.9 | 0.00 | 1.57 | 0.71 | 81 | 1012.3 |
| 20260502102002 | 56 | 0 | 0.0 | 0.0 | 0.00 | 1.57 | 0.71 | 81 | 1012.0 |
| 20260502070002 | 65 | 320 | 1.7 | 6.1 | 0.00 | 1.66 | 0.71 | 60 | 1010.9 |
| 20260502064002 | 65 | 322 | 1.7 | 7.0 | 0.00 | 1.66 | 0.71 | 60 | 1010.8 |
| 20260502062002 | 65 | 328 | 1.7 | 7.0 | 0.00 | 1.66 | 0.71 | 62 | 1010.7 |
| 20260502060002 | 65 | 315 | 2.6 | 13.9 | 0.00 | 1.66 | 0.71 | 62 | 1010.6 |
| 20260502054002 | 65 | 327 | 3.5 | 11.3 | 0.00 | 1.66 | 0.71 | 59 | 1010.4 |
| 20260502052002 | 65 | 320 | 2.6 | 10.4 | 0.00 | 1.66 | 0.71 | 59 | 1010.3 |
| 20260502050002 | 65 | 325 | 3.5 | 12.2 | 0.00 | 1.66 | 0.71 | 58 | 1010.2 |
| 20260502044001 | 66 | 324 | 3.5 | 13.0 | 0.00 | 1.66 | 0.71 | 57 | 1010.3 |
| 20260502042002 | 65 | 326 | 5.2 | 13.0 | 0.00 | 1.66 | 0.71 | 59 | 1010.3 |
| 20260502040002 | 65 | 317 | 1.7 | 10.4 | 0.00 | 1.66 | 0.71 | 57 | 1010.5 |
| 20260502034002 | 65 | 328 | 4.3 | 13.0 | 0.00 | 1.66 | 0.71 | 58 | 1010.2 |
| 20260502032001 | 65 | 330 | 2.6 | 12.2 | 0.00 | 1.66 | 0.71 | 59 | 1010.2 |
| 20260502030002 | 65 | 329 | 3.5 | 11.3 | 0.00 | 1.66 | 0.71 | 59 | 1009.9 |
| 20260502024002 | 65 | 332 | 3.5 | 9.6 | 0.00 | 1.66 | 0.71 | 59 | 1009.9 |
| 20260502022002 | 65 | 297 | 2.6 | 9.6 | 0.00 | 1.66 | 0.71 | 58 | 1009.6 |
| 20260502020001 | 64 | 328 | 4.3 | 11.3 | 0.00 | 1.66 | 0.71 | 59 | 1009.6 |
| 20260502014002 | 64 | 319 | 4.3 | 13.9 | 0.00 | 1.67 | 0.71 | 60 | 1009.2 |
| 20260502012001 | 64 | 324 | 4.3 | 10.4 | 0.00 | 1.67 | 0.71 | 61 | 1008.9 |
| 20260502010002 | 64 | 324 | 3.5 | 8.7 | 0.00 | 1.67 | 0.71 | 64 | 1008.9 |
| 20260502004001 | 62 | 322 | 4.3 | 15.6 | 0.00 | 1.67 | 0.71 | 62 | 1009.0 |
| 20260502002001 | 63 | 332 | 2.6 | 13.0 | 0.00 | 1.68 | 0.71 | 65 | 1009.0 |
| 20260502000001 | 60 | 344 | 3.5 | 11.3 | 0.00 | 1.72 | 0.71 | 67 | 1008.3 |
| 20260501234001 | 59 | 333 | 2.6 | 7.8 | 0.00 | 1.73 | 0.71 | 70 | 1008.1 |
| 20260501232001 | 59 | 127 | 1.7 | 9.6 | 0.00 | 1.76 | 0.71 | 71 | 1007.9 |
| 20260501230001 | 60 | 331 | 2.6 | 11.3 | 0.00 | 1.78 | 0.71 | 71 | 1007.4 |
| 20260501224002 | 59 | 126 | 0.9 | 4.3 | 0.00 | 1.79 | 0.71 | 71 | 1006.8 |
| 20260501222001 | 58 | 12 | 0.9 | 5.2 | 0.00 | 1.79 | 0.71 | 78 | 1006.6 |
| 20260501220001 | 56 | 126 | 0.9 | 4.3 | 0.00 | 1.79 | 0.71 | 83 | 1006.1 |
| 20260501214001 | 56 | 96 | 0.9 | 3.5 | 0.00 | 1.79 | 0.71 | 84 | 1006.2 |
| 20260501212001 | 54 | 70 | 0.0 | 2.6 | 0.00 | 1.79 | 0.71 | 87 | 1005.8 |